Seitenende
  ETA
Vessel
Container No.
Shipping Company
Warehouse Date
Date of Removal
Status
1 28.04.2018 Umm Qarn  TCLU 203 413-7 Nyk 00.00.0000 00.00.0000 Im Zulauf
2 27.04.2018 Cosco Italy  TGCU 004 966-9 CMA CGM 00.00.0000 00.00.0000 Im Zulauf
3 26.04.2018 CMA CGM Jules Verne  CBHU 281 803-0 Cosco 00.00.0000 00.00.0000 Im Zulauf
4 19.04.2018 Nyk Altair  TRIU 806 253-1 Nyk 23.04.2018 24.04.2018 Bestand
5 19.04.2018 CMA CGM Magellan  SZLU 967 876-9 Cosco 20.04.2018 23.04.2018 Bestand
6 19.04.2018 YM Wellhead  BEAU 237 282-7 Yang Ming 23.04.2018 24.04.2018 Bestand
7 19.04.2018 Cosco Shipping Alps  FCIU 354 993-0 CMA CGM 00.00.0000 00.00.0000 Im Zulauf
8 18.04.2018 San Francisca  SUDU 681 692-1 Hamburg Süd 19.04.2018 20.04.2018 Bestand
9 18.04.2018 San Francisca  MSKU 512 959-4 Hamburg Süd 20.04.2018 20.04.2018 Bestand
10 14.04.2018 YM Wind  BEAU 247 434-6 Yang Ming 17.04.2018 17.04.2018 Bestand
11 12.04.2018 APL Changi  BMOU 950 758-0 Cosco 16.04.2018 16.04.2018 Bestand
12 12.04.2018 Nyk Arcadia  NYKU 980 845-2 Nyk 16.04.2018 16.11.2018 Bestand
13 11.04.2018 San Felix  TCKU 247 358-0 Hamburg Süd 12.04.2018 12.04.2018 Bestand
14 11.04.2018 San Felix  FCIU 427 062-1 Hamburg Süd 12.04.2018 12.04.2018 Bestand
15 11.04.2018 MSC Fabiola  BSIU 285 663-1 MSC 11.04.2018 12.04.2018 Bestand
16 11.04.2018 San Felix  SUDU 789 530-8 Hamburg Süd 12.04.2018 12.04.2018 Bestand
17 05.04.2018 Nyk Virgo  NYKU 344 585-3   06.04.2018 09.04.2018 Bestand
18 05.04.2018 CC Vasco De Gama  TEMU 916 118-8 Cosco 09.04.2018 10.04.2018 Bestand
19 03.04.2018 Mol Treasure  TEMU 170 572-6 Yang Ming 04.04.2018 04.04.2018 Bestand
20 02.04.2018 MSC Filomena  TCKU 325 901-7 Karl Geuther 04.04.2018 05.04.2018 Bestand
21 01.04.2018 CMA CGM Amazon  SUDU 760 579-6 Hamburg Süd 03.04.2018 04.04.2018 Bestand
22 01.04.2018 CMA CGM Amazon  SUDU 135 399-5 Hamburg Süd 03.04.2018 04.04.2018 Bestand
23 29.03.2018 Nyk Venus  SEGU 911 065-1 Nyk 05.04.2018 05.04.2018 Bestand
24 24.03.2018 Cosco Netherlands  CGMU 535 382-6 CMA CGM 27.03.2018 28.03.2018 Bestand
25 24.03.2018 Cosco Netherlands  CMAU 098 445-6 CMA CGM 26.03.2018 26.03.2018 Bestand
26 24.03.2018 Cosco Netherlands  UNDU 254 103-9 Evergreen 26.03.2018 26.03.2018 Bestand
27 24.03.2018 Nyk Vega  NYKU 326 603-5 Nyk 27.03.2018 27.03.2018 Bestand
28 21.03.2018 Athenian  SUDU 755 375-3 Hamburg Süd 22.03.2018 23.03.2018 Bestand
29 21.03.2018 Athenian  SUDU 773 909-6 Hamburg Süd 22.03.2018 22.03.2018 Bestand
30 16.03.2018 Cosco Portugal  TRIU 816 138-6 CMA CGM 19.03.2018 20.03.2018 Bestand
31 15.03.2018 CC A D Saint Exupery  CXRU 136 933-9 Cosco 16.03.2018 19.03.2018 Bestand
32 15.03.2018 CC A D Saint Exupery  TEMU 906 275-5 Cosco 17.03.2018 20.03.2018 Bestand
33 15.03.2018 CCNI Arauco  SUDU 197 402-0 Hamburg Süd 16.03.2018 16.03.2018 Bestand
34 15.03.2018 CCNI Arauco  SUDU 190 067-0 Hamburg Süd 16.03.2018 16.03.2018 Bestand
35 15.03.2018 CCNI Arauco  NYKU 341 568-0 Nyk 16.03.2018 16.03.2018 Bestand
36 15.03.2018 Nyk Olympus  NYKU 975 060-2 Nyk 20.03.2018 20.03.2018 Bestand
37 09.03.2018 YM Worth  NYKU 713 880-8 Nyk 13.03.2018 14.03.2018 Bestand
38 09.03.2018 Al Murabba  NYKU 344 886-8 Nyk 12.03.2018 13.03.2018 Bestand
39 08.03.2018 Nyk Orpheus  NYKU 383 333-4 Nyk 12.03.2018 13.03.2018 Bestand
40 08.03.2018 CMA CGM Zheng He  TTNU 819 913-4 Cosco 13.03.2018 14.03.2018 Bestand
41 07.03.2018 Express Rome  FCIU 453 848-4 Nyk 14.03.2018 15.03.2018 Bestand
42 07.03.2018 Express Rome  HASU 120 203-9 Hamburg Süd 14.03.2018 15.03.2018 Bestand
43 04.03.2018 Nyk Falcon  TCLU 135 482-0 Nyk 08.03.2018 09.03.2018 Bestand
44 02.03.2018 Cosco Denmark  CBHU 353 436-2 Cosco 05.03.2018 06.03.2018 Bestand
45 02.03.2018 Nyk Adonis  SZLU 908 184-0 Nyk 05.03.2018 06.03.2018 Bestand
46 01.03.2018 Tempanos  SUDU 133 203-5 Hamburg Süd 06.03.2018 06.03.2018 Bestand
47 01.03.2018 Tempanos  SUDU 187 125-3 Hamburg Süd 06.03.2018 06.03.2018 Bestand
48 01.03.2018 Tempanos  SUDU 180 386-0 Hamburg Süd 06.03.2018 06.03.2018 Bestand
49 01.03.2018 Tempanos  HASU 109 329-9 Hamburg Süd 06.03.2018 07.03.2018 Bestand
50 01.03.2018 CMA CGM Kerguelen  TEMU 947 436-7 Cosco 07.03.2018 08.03.2018 Bestand
51 27.02.2018 Al Nasriyah  NYKU 383 200-3 Nyk 01.03.2018 02.03.2018 Bestand
52 26.02.2018 MSC Erica  MMAU 106 759-6 Maersk 28.02.2018 01.03.2018 Bestand
53 23.02.2018 Cosco Shipping Aries  FCIU 501 698-8 Cosco 27.02.2018 28.02.2018 Bestand
54 22.02.2018 CMA CGM Benjamin Franklin  SEGU 934 709-4 Cosco 23.02.2018 23.02.2018 Bestand
55 22.02.2018 Nyk Vesta  TTNU 802 140-9 Nyk 26.02.2018 26.02.2018 Bestand
56 16.02.2018 YM Wellness  TCLU 737 836-7 Nyk 21.02.2018 21.02.2018 Bestand
57 15.02.2018 CMA CGM Bougainville  TEMU 955 476-0 Cosco 16.02.2018 16.02.2018 Bestand
58 15.02.2018 Nyk Oceanus  BEAU 275 220-0 Nyk 19.02.2018 20.02.2018 Bestand
59 14.02.2018 San Felix  HASU 149 874-3 Hamburg Süd 15.02.2018 16.02.2018 Bestand
60 09.02.2018 Cosco Italy  BCHU 018 362-4 Cosco 13.02.2018 14.02.2018 Bestand
61 09.02.2018 YM Wellhead  TTNU 846 815-1 K-Line 12.02.2018 13.02.2018 Bestand
62 08.02.2018 CMA CGM Corte Real  CBHU 283 747-2 Cosco 12.02.2018 13.02.2018 Bestand
63 07.02.2018 Torrente  TCKU 288 794-0 Hamburg Süd 08.02.2018 08.02.2018 Bestand
64 07.02.2018 Torrente  SUDU 197 140-0 Hamburg Süd 08.02.2018 08.02.2018 Bestand
65 07.02.2018 Torrente  SUDU 185 945-3 Hamburg Süd 08.02.2018 08.02.2018 Bestand
66 07.02.2018 Nyk Altair  TRHU 313 434-2 Nyk 09.02.2018 09.02.2018 Bestand
67 01.02.2018 CC Georg Forster  TEMU 920 241-4 Cosco 05.02.2018 05.02.2018 Bestand
68 27.01.2018 Sajir  NYKU 385 588-4 Nyk 30.01.2018 30.01.2018 Bestand
69 26.01.2018 Nyk Crane  TTNU 845 002-3 K-Line 30.01.2018 31.01.2018 Bestand
70 26.01.2018 CSCL Uranus  CBHU 437 102-2 Cosco 30.01.2018 30.01.2018 Bestand
71 26.01.2018 CMA Jules Verne  TRIU 843 482-9 CMA CGM 29.01.2018 30.01.2018 Bestand
72 25.01.2018 Nyk Virgo  NYKU 526 374-0 Nyk 30.01.2018 31.01.2018 Bestand
73 24.01.2018 Thalassa Tyhi  EITU 014 253-9 Evergreen 24.01.2018 25.01.2018 Bestand
74 24.01.2018 APL Merlion  APRU 611 051-0 CMA CGM 26.01.2018 29.01.2018 Bestand
75 19.01.2018 Cosco Spain  CCLU 382 539-4 OOCL 23.01.2018 23.01.2018 Bestand
76 17.01.2018 APL Temasek  TCKU 355 949-9 CMA CGM 19.01.2018 19.01.2018 Bestand
77 17.01.2018 Nyk Arcadia  TCLU 760 302-5 Nyk 19.01.2018 22.01.2018 Bestand
78 17.01.2018 Nyk Arcadia  NYKU 373 741-2 Nyk 22.01.2018 22.01.2018 Bestand
79 12.01.2018 Nyk Eagle  TRIU 826 601-0 K-Line 16.01.2018 17.01.2018 Bestand
80 11.01.2018 CSCL Saturn  CSLU 159 411-0 Cosco 15.01.2018 15.01.2018 Bestand
81 11.01.2018 CMA Vasco da Gama  TRIU 883 624-2 CMA CGM 12.01.2018 15.01.2018 Bestand
82 10.01.2018 Tucapel  SUDU 797 379-8   11.01.2018 12.01.2018 Bestand
83 05.01.2018 Cosco Netherlands  UNIU 200 993-4 Cosco 08.01.2018 09.01.2018 Bestand
84 04.01.2018 Nyk Olympus  TTNU 810 330-1 Nyk 09.01.2018 10.01.2018 Bestand
85 03.01.2018 CMA CGM Alaska  CGMU 928 930-3 CMA CGM 05.01.2018 08.01.2018 Bestand
86 03.01.2018 Tempanos  SUDU 779 047-8 Hamburg-Süd 04.01.2018 05.01.2018 Bestand
87 29.12.2017 Cosco Portugal  CSLU 145 305-1 Cosco 02.01.2018 03.01.2018 Bestand
88 29.12.2017 YM Worth  TGHU 999 286-1 K-Line 04.01.2018 05.01.2018 Bestand
89 28.12.2017 Nyk Orpheus  NYKU 368 856-0 Nyk 02.01.2018 03.01.2018 Bestand
90 27.12.2017 San Francisca  MBIU 826 317-0   28.12.2017 28.12.2017 Bestand
91 27.12.2017 San Francisca  SUDU 749 824-0   28.12.2017 28.12.2017 Bestand
92 26.12.2017 CMA CGM Nevada  CXRU 136 720-7 CMA CGM 28.12.2017 29.12.2017 Bestand
93 22.12.2017 Cosco England  ICOU 610 057-7 Cosco 27.12.2017 28.12.2017 Bestand
94 21.12.2017 CMA CGM Magellan  APRU 574 310-8 CMA CGM 22.12.2017 27.12.2017 Bestand
95 21.12.2017 Nyk Vega  TCLU 196 440-0 Nyk 22.12.2017 22.12.2017 Bestand
96 15.12.2017 Cosco Denmark  ICOU 610 054-0 Cosco 18.12.2017 19.12.2017 Bestand
97 15.12.2017 Cosco Denmark  TEMU 928 437-2 Cosco 18.12.2017 18.12.2017 Bestand
98 14.12.2017 Nyk Vesta  TCLU 694 413-5 Nyk 18.12.2017 18.12.2017 Bestand
99 13.12.2017 Torrente  SUDU 134 138-2   14.12.2017 15.12.2017 Bestand

Seitenanfang